Simultaneous Nadir Overpasses (SNOs) Predictions

Prediction of SNOs between AQUA and METOP-C Satellite Orbit:

Table of predicted SNOs for the next 14.0 days since TLE Epoch: 10/9/2021
Index Date (AQUA) Time (AQUA) Lat,Lon (AQUA) SZA (AQUA ) Date (METOP-C) Time (METOP-C) Lat,Lon (METOP-C) SZA (METOP-C ) Distance(km) Time Diff (sec)
1 10/09/2021 03:21:31 -73.63, -55.76 100.14 10/09/2021 03:20:18 -73.55, -56.25 100.20 17.90 73
2 10/09/2021 04:11:01 73.77, 111.58 80.03 10/09/2021 04:10:53 73.74, 111.54 80.00 3.37 8
3 10/09/2021 05:00:28 -73.83, -80.92 99.90 10/09/2021 05:01:34 -73.83, -80.93 99.91 0.64 66
4 10/11/2021 22:55:47 -73.69, 10.55 99.01 10/11/2021 22:54:39 -73.71, 10.53 98.99 2.33 68
5 10/11/2021 23:45:16 73.78, 177.99 81.10 10/11/2021 23:45:16 73.80, 178.07 81.12 3.05 0
6 10/12/2021 00:34:44 -73.89, -14.62 98.78 10/12/2021 00:35:57 -73.89, -14.38 98.78 7.32 73
7 10/14/2021 18:30:02 -73.71, 76.95 97.94 10/14/2021 18:29:03 -73.72, 76.96 97.93 0.80 59
8 10/14/2021 19:19:31 73.80,-115.62 82.17 10/14/2021 19:19:40 73.80,-115.51 82.17 3.26 9
9 10/14/2021 20:09:05 -74.22, 51.07 97.39 10/14/2021 20:10:14 -74.24, 52.90 97.39 55.34 69
10 10/17/2021 14:04:16 -73.75, 143.32 96.87 10/17/2021 14:03:26 -73.72, 143.38 96.89 3.17 50
11 10/17/2021 14:53:44 73.79, -49.14 83.19 10/17/2021 14:54:03 73.80, -49.10 83.20 1.57 19
12 10/20/2021 09:38:30 -73.74,-150.23 95.86 10/20/2021 09:37:50 -73.72,-150.21 95.88 1.99 40
13 10/20/2021 10:27:58 73.78, 17.32 84.20 10/20/2021 10:28:27 73.80, 17.30 84.21 1.54 29



Historial Predications of SNOs between AQUA and METOP-C
